Hourly Data Report for April 28, 2003

TORONTO CITY
ONTARIO

43°40'00.000" N
79°24'00.000" W
112.50 m
6158355
71508
XTO

Download Data

Hourly Data (April 2003)
Hourly Data Report for April 28, 2003
TIME
LST
Temp Definition
°C
Dew Point Definition
°C
Rel Hum Definition
%
Precip. Amount Definition
mm

Wind Dir Definition
10's deg

Wind Spd Definition
km/h
Visibility Definition
km
Stn Press Definition
kPa
Hmdx Definition


Wind Chill Definition


Weather Definition


00:00 9.1 -2.0 46   LegendMM LegendMM LegendMM 99.96     LegendNANA
01:00 8.7 -1.8 48   LegendMM LegendMM LegendMM 99.94     LegendNANA
02:00 8.1 -1.8 50   LegendMM LegendMM LegendMM 99.88     LegendNANA
03:00 8.0 -1.1 53   LegendMM LegendMM LegendMM 99.85     LegendNANA
04:00 8.3 -1.6 50   LegendMM LegendMM LegendMM 99.81     LegendNANA
05:00 8.6 -0.3 54   LegendMM LegendMM LegendMM 99.79     LegendNANA
06:00 9.4 0.8 55   LegendMM LegendMM LegendMM 99.79     LegendNANA
07:00 10.5 1.6 54   LegendMM LegendMM LegendMM 99.78     LegendNANA
08:00 14.0 2.9 47   LegendMM LegendMM LegendMM 99.73     LegendNANA
09:00 16.8 4.2 43   LegendMM LegendMM LegendMM 99.66     LegendNANA
10:00 18.8 5.3 41   LegendMM LegendMM LegendMM 99.62     LegendNANA
11:00 21.1 6.3 38   LegendMM LegendMM LegendMM 99.54     LegendNANA
12:00 22.8 8.1 39   LegendMM LegendMM LegendMM 99.48     LegendNANA
13:00 22.1 7.1 38   LegendMM LegendMM LegendMM 99.41     LegendNANA
14:00 22.9 7.9 38   LegendMM LegendMM LegendMM 99.35     LegendNANA
15:00 21.6 7.1 39   LegendMM LegendMM LegendMM 99.33     LegendNANA
16:00 21.1 7.4 41   LegendMM LegendMM LegendMM 99.29     LegendNANA
17:00 20.8 6.7 40   LegendMM LegendMM LegendMM 99.31     LegendNANA
18:00 21.5 7.4 40   LegendMM LegendMM LegendMM 99.29     LegendNANA
19:00 21.6 8.2 42   LegendMM LegendMM LegendMM 99.30     LegendNANA
20:00 21.8 8.0 41   LegendMM LegendMM LegendMM 99.41     LegendNANA
21:00 15.5 3.6 45   LegendMM LegendMM LegendMM 99.55     LegendNANA
22:00 13.6 2.8 48   LegendMM LegendMM LegendMM 99.58     LegendNANA
23:00 11.7 3.0 55   LegendMM LegendMM LegendMM 99.62     LegendNANA

Notes on Data Quality.

Legend

  • E = Estimated
  • M = Missing
  • NA = Not Available*
  • [empty] = Indicates an unobserved value
Date modified: